Home > Weather > Fredericton > Past weeks

Flag for Canada Past Weather in Fredericton, New Brunswick, Canada — Yesterday and Last 2 Weeks

Now
70 °F

Partly sunny.


Feels Like: 70 °F
Forecast: N/A
Wind: 17 mph from Northwest

Location: Fredericton

Current Time: Aug 29, 2016 at 6:53:13 PM

Latest Report: Aug 29, 2016 at 6:00 PM


Visibility: 9 mi

Pressure: 29.91 "Hg

Humidity: 57%

Dew Point: 54 °F

Location of FrederictonLocation

Past Weather in Fredericton — Graph

°F

Fredericton Temperature Yesterday

Maximum temperature yesterday: 75 °F (at 2:00 PM)
Minimum temperature yesterday: 54 °F (at 4:00 AM)
Average temperature yesterday: 63 °F

High & Low Weather Summary for the Past Weeks

 TemperatureHumidityPressure
High86 °F (Aug 25, 3:00 PM)100% (Aug 15, 6:00 AM)30.33 "Hg (Aug 15, 6:00 AM)
Low48 °F (Aug 16, 6:00 AM)42% (Aug 23, 4:00 PM)29.67 "Hg (Aug 22, 3:00 PM)
Average66 °F83%29.97 "Hg
* Reported Aug 14 5:00 PM — Aug 29 5:00 PM, Fredericton, Weather by CustomWeather, © 2016

Note: Actual official high and low records may vary slightly from our data, if they occured in-between our weather recording intervals... More about our weather records

Advertising

Fredericton Weather History for the Previous 24 Hours

Scroll right to see more
 ConditionsComfort  
Time TempWeatherWind HumidityBarometerVisibility
5:00 PM
Mon, Aug 29
72 °FPartly sunny.16 mph57%29.88 "Hg9 mi
4:00 PM72 °FScattered clouds.15 mph61%29.85 "Hg9 mi
3:00 PM79 °FScattered clouds.10 mph51%29.82 "Hg9 mi
2:00 PM75 °FPartly sunny.17 mph54%29.80 "Hg9 mi
1:00 PM77 °FBroken clouds.13 mph65%29.80 "Hg9 mi
12:00 PM73 °FBroken clouds.12 mph78%29.84 "Hg9 mi
11:57 AM73 °FBroken clouds.13 mph78%29.84 "Hg9 mi
11:00 AM70 °FMostly cloudy.12 mph83%29.86 "Hg9 mi
10:00 AM68 °FOvercast.12 mph88%29.87 "Hg9 mi
9:00 AM66 °FOvercast.9 mph88%29.89 "Hg9 mi
8:00 AM64 °FOvercast.13 mph88%29.91 "Hg9 mi
7:00 AM64 °FOvercast.8 mph88%29.93 "Hg9 mi
6:00 AM63 °FOvercast.8 mph88%29.95 "Hg9 mi
5:00 AM61 °FOvercast.9 mph94%29.98 "Hg9 mi
4:00 AM61 °FMostly cloudy.9 mph88%29.99 "Hg9 mi
3:00 AM61 °FMostly cloudy.12 mph88%30.02 "Hg9 mi
2:56 AM61 °FOvercast.10 mph94%30.02 "Hg9 mi
2:00 AM64 °FOvercast.9 mph78%30.04 "Hg9 mi
1:00 AM63 °FOvercast.8 mph77%30.06 "Hg9 mi
12:55 AM63 °FOvercast.8 mph77%30.07 "Hg9 mi
12:00 AM64 °FOvercast.7 mph68%30.09 "Hg9 mi
11:00 PM
Sun, Aug 28
64 °FOvercast.8 mph68%30.12 "Hg9 mi
10:00 PM64 °FLight rain. Mostly cloudy.10 mph73%30.14 "Hg9 mi
9:56 PM64 °FLight rain. Mostly cloudy.9 mph73%30.14 "Hg9 mi
9:00 PM66 °FMostly cloudy.7 mph68%30.15 "Hg9 mi
8:00 PM68 °FMostly cloudy.6 mph73%30.15 "Hg9 mi
7:00 PM68 °FOvercast.7 mph73%30.17 "Hg9 mi
6:00 PM70 °FMostly cloudy.7 mph73%30.19 "Hg9 mi
Weather by CustomWeather, © 2016

See weather overviewHow to use our weather pages